Tracking 29089 objects as of 12-Jul-2024
HD Live streaming from Space Station
objects crossing your sky now

ATLAS 5 CENTAUR DEB

Track ATLAS 5 CENTAUR DEB now!


NORAD ID: 49353
Int'l Code: 2018-079FE
Perigee: 8,352.2 km
Apogee: 32,993.6 km
Inclination: 12.3 °
Period: 737.7 minutes
Semi major axis: 27043 km
RCS: Unknown
Launch date: October 17, 2018
Source: United States (US)
Launch site: AIR FORCE EASTERN TEST RANGE (AFETR)

Note: This is SATELLITE DEBRIS
Your satellite tracking list
Your tracking list is empty




NASA's NSSDC Master Catalog

Two Line Element Set (TLE):
1 49353U 18079FE  24185.13872759 -.00000157  00000-0  00000-0 0  9995
2 49353  12.3410  76.0604 4555824 249.7232  56.5925  1.95208955  4237
Source of the keplerian elements: AFSPC